Stations météo

réclame
Mon MeteoGroup
AWG, Pays-Bas (6208): Température de l'air & dewpoint: 18.10.2018 07:00:00 - 24.10.2018 07:00:00 (CEST)AWG, Pays-Bas (6208): Vitesse du vent & gusts: 18.10.2018 07:00:00 - 24.10.2018 07:00:00 (CEST)AWG, Pays-Bas (6208): Direction du vent: 18.10.2018 07:00:00 - 24.10.2018 07:00:00 (CEST)AWG, Pays-Bas (6208): reduced air pressure: 18.10.2018 07:00:00 - 24.10.2018 07:00:00 (CEST)AWG, Pays-Bas (6208): visibility: 18.10.2018 07:00:00 - 24.10.2018 07:00:00 (CEST)
Date & Time tt [°C] td [°C] ff [km/h] ff [knt] fx [km/h] fx [knt] dd ppp [hPa] vv [km]
24.10.2018 07:00:00 13,9 11,1 63 34 65 35 NW 1019,0 10
24.10.2018 06:00:00 13,5 11,2 65 35 72 39 NW 1017,6 10
24.10.2018 05:00:00 13,9 11,1 63 34 68 37 WNW 1017,5 10
24.10.2018 04:00:00 13,6 11,7 61 33 72 39 WNW 1016,9 5
24.10.2018 03:00:00 13,9 11,7 67 36 76 41 WNW 1017,3 9
24.10.2018 02:00:00 13,5 12,1 59 32 65 35 WNW 1017,3 4,0
24.10.2018 01:00:00 13,6 11,7 68 37 72 39 WNW 1017,4 9
24.10.2018 00:00:00 13,6 12,0 65 35 68 37 WNW 1017,3 8
23.10.2018 23:00:00 14,0 11,5 61 33 68 37 WNW 1017,6 10
23.10.2018 22:00:00 13,8 11,4 57 31 65 35 WNW 1017,9 10
23.10.2018 21:00:00 14,2 11,2 61 33 68 37 WNW 1018,1 10
23.10.2018 20:00:00 14,2 10,8 63 34 72 39 WNW 1017,9 10
23.10.2018 19:00:00 14,0 10,7 65 35 72 39 WNW 1017,6 10
23.10.2018 18:00:00 13,8 10,2 63 34 72 39 WNW 1017,9 10
23.10.2018 17:00:00 13,8 9,9 70 38 72 39 WNW 1017,8 10
23.10.2018 16:00:00 13,6 9,7 57 31 68 37 W 1017,5 8
23.10.2018 15:00:00 13,5 9,6 55 30 68 37 WNW 1017,4 7
23.10.2018 14:00:00 13,2 10,1 61 33 72 39 WNW 1018,1 8
23.10.2018 13:00:00 13,3 9,7 67 36 76 41 WNW 1017,9 7
23.10.2018 12:00:00 13,5 9,8 67 36 76 41 WNW 1018,0 7
23.10.2018 11:00:00 13,4 10,1 55 30 72 39 WNW 1018,5 7
23.10.2018 10:00:00 13,3 10,0 55 30 72 39 WNW 1019,1 9
23.10.2018 09:00:00 13,1 9,6 57 31 58 31 WNW 1019,6 10
23.10.2018 08:00:00 13,3 9,1 55 30 61 33 WNW 1020,0 10
23.10.2018 07:00:00 13,1 8,5 52 28 54 29 WNW 1020,6 10
23.10.2018 06:00:00 13,2 8,7 55 30 54 29 WNW 1021,6 10
23.10.2018 05:00:00 13,1 7,7 52 28 54 29 WNW 1022,4 10
23.10.2018 04:00:00 13,0 8,3 50 27 54 29 W 1023,6 10
23.10.2018 03:00:00 13,0 8,5 54 29 54 29 W 1025,7 10
23.10.2018 02:00:00 12,7 7,7 48 26 50 27 W 1026,3 10
23.10.2018 01:00:00 12,4 6,8 42 23 50 27 W 1028,4 10
23.10.2018 00:00:00 12,5 6,3 42 23 43 23 W 1029,6 10
22.10.2018 23:00:00 12,2 5,6 39 21 40 21 W 1030,3 10
22.10.2018 22:00:00 12,0 4,3 37 20 40 21 W 1031,2 10
22.10.2018 21:00:00 12,0 4,4 29 16 32 18 WNW 1031,5 10
22.10.2018 20:00:00 12,0 5,0 26 14 36 19 W 1032,2 10
22.10.2018 19:00:00 11,8 5,8 34 18 36 19 WNW 1032,4 10
22.10.2018 18:00:00 12,0 5,2 29 16 32 18 NW 1033,0 10
22.10.2018 17:00:00 12,1 2,8 29 16 32 18 NW 1032,7 10
22.10.2018 16:00:00 12,0 5,1 34 18 36 19 NW 1033,2 10
22.10.2018 15:00:00 12,3 3,2 26 14 36 19 NNW 1032,9 10
22.10.2018 14:00:00 12,3 1,7 35 19 40 21 NNW 1032,8 10
22.10.2018 13:00:00 12,3 4,1 39 21 40 21 NNW 1032,7 10
22.10.2018 12:00:00 12,5 5,7 37 20 40 21 N 1032,3 10
22.10.2018 11:00:00 12,7 4,5 37 20 43 23 N 1031,7 10
22.10.2018 10:00:00 12,8 5,2 44 24 43 23 N 1031,1 10
22.10.2018 09:00:00 13,0 6,5 44 24 43 23 N 1030,3 10
22.10.2018 08:00:00 13,2 5,5 42 23 43 23 N 1029,2 10
22.10.2018 07:00:00 13,3 8,0 44 24 43 23 N 1028,6 10
22.10.2018 06:00:00 13,6 8,6 34 18 40 21 N 1028,0 10
22.10.2018 05:00:00 13,5 7,3 48 26 47 25 N 1027,4 10
22.10.2018 04:00:00 13,6 8,8 48 26 47 25 N 1026,8 10
22.10.2018 03:00:00 13,0 10,6 48 26 54 29 N 1026,5 10
22.10.2018 02:00:00 14,3 12,5 39 21 40 21 NNW 1025,6 10
22.10.2018 01:00:00 13,9 13,1 34 18 40 21 NW 1025,3 6
22.10.2018 00:00:00 14,5 13,2 22 12 25 14 WNW 1025,3 10
21.10.2018 23:00:00 14,5 12,8 24 13 25 14 WSW 1025,1 6
21.10.2018 22:00:00 14,4 12,1 26 14 29 16 SW 1025,2 8
21.10.2018 21:00:00 13,7 10,5 24 13 32 18 SW 1025,4 8
21.10.2018 20:00:00 13,9 10,0 28 15 32 18 SSW 1025,2 9
21.10.2018 19:00:00 14,1 9,6 26 14 40 21 SSW 1025,4 10
21.10.2018 18:00:00 14,2 9,6 39 21 43 23 SSW 1024,8 10
21.10.2018 17:00:00 14,7 10,0 35 19 40 21 - 1025,0 10
21.10.2018 16:00:00 15,1 10,8 35 19 36 19 - 1025,5 9
21.10.2018 15:00:00 15,4 11,3 29 16 32 18 - 1026,0 8
21.10.2018 14:00:00 15,4 11,4 26 14 32 18 SSW 1026,4 8
21.10.2018 13:00:00 15,3 11,5 26 14 32 18 SSW 1027,1 9
21.10.2018 12:00:00 14,6 11,3 29 16 36 19 - 1027,4 9
21.10.2018 11:00:00 13,3 10,9 28 15 32 18 - 1027,4 7
21.10.2018 10:00:00 12,9 10,7 28 15 32 18 - 1027,4 6
21.10.2018 09:00:00 12,6 10,8 24 13 29 16 - 1027,4 6
21.10.2018 08:00:00 12,6 11,0 22 12 32 18 SSW 1027,3 6
21.10.2018 07:00:00 12,3 10,8 31 17 36 19 - 1027,3 4,1
21.10.2018 06:00:00 12,0 10,7 31 17 36 19 SSW 1027,8 4,9
21.10.2018 05:00:00 12,2 10,5 31 17 32 18 SSW 1028,0 5
21.10.2018 04:00:00 12,5 10,6 24 13 29 16 SSW 1028,2 6
21.10.2018 03:00:00 12,4 10,4 21 11 22 12 - 1028,6 7
21.10.2018 02:00:00 12,7 10,7 22 12 22 12 SW 1028,8 8
21.10.2018 01:00:00 12,8 11,0 22 12 22 12 SW 1029,4 8
21.10.2018 00:00:00 13,5 11,4 18 10 18 10 SW 1029,6 10
20.10.2018 23:00:00 13,9 11,2 18 10 18 10 W 1029,8 10
20.10.2018 22:00:00 14,1 10,8 21 11 18 10 W 1029,8 10
20.10.2018 21:00:00 14,2 11,2 13 7 18 10 WSW 1030,0 10
20.10.2018 20:00:00 14,4 11,1 18 10 22 12 W 1030,0 10
20.10.2018 19:00:00 14,5 10,9 21 11 25 14 W 1029,6 10
20.10.2018 18:00:00 14,4 10,4 22 12 22 12 W 1029,4 10
20.10.2018 17:00:00 14,5 10,7 21 11 22 12 W 1029,8 10
20.10.2018 16:00:00 14,6 10,6 24 13 25 14 W 1029,9 10
20.10.2018 15:00:00 14,7 10,3 22 12 22 12 W 1029,9 10
20.10.2018 14:00:00 14,6 10,8 24 13 25 14 W 1030,2 10
20.10.2018 13:00:00 14,6 10,4 26 14 25 14 W 1030,1 10
20.10.2018 12:00:00 14,5 10,7 22 12 25 14 W 1030,3 10
20.10.2018 11:00:00 13,8 10,1 21 11 22 12 W 1030,0 10
20.10.2018 10:00:00 12,4 10,0 16 9 18 10 SW 1029,7 10
20.10.2018 09:00:00 12,1 9,7 16 9 18 10 SW 1028,7 10
20.10.2018 08:00:00 11,8 9,2 16 9 18 10 SW 1028,7 10
20.10.2018 07:00:00 11,7 8,6 21 11 22 12 SW 1028,6 10
20.10.2018 06:00:00 11,2 8,2 21 11 22 12 SSW 1028,3 10
20.10.2018 05:00:00 10,7 6,9 16 9 22 12 SSW 1028,1 10
20.10.2018 04:00:00 10,6 6,3 22 12 25 14 - 1027,7 10
20.10.2018 03:00:00 10,8 5,9 21 11 25 14 - 1027,4 10
20.10.2018 02:00:00 11,2 5,8 15 8 18 10 - 1027,9 10
20.10.2018 01:00:00 11,0 6,0 18 10 18 10 SSW 1027,6 10
20.10.2018 00:00:00 11,3 6,3 15 8 14 8 - 1027,6 10
19.10.2018 23:00:00 11,5 6,1 13 7 14 8 SSW 1027,6 10
19.10.2018 22:00:00 11,7 5,6 11 6 11 6 S 1027,6 10
19.10.2018 21:00:00 12,0 4,0 4 2 11 6 - 1027,2 10
19.10.2018 20:00:00 12,1 3,9 8 4 11 6 ESE 1026,9 10
19.10.2018 19:00:00 12,5 4,4 11 6 14 8 SE 1026,3 10
19.10.2018 18:00:00 12,6 4,0 9 5 14 8 ESE 1026,2 10
19.10.2018 17:00:00 13,0 4,0 13 7 14 8 ESE 1025,7 10
19.10.2018 16:00:00 13,1 4,1 11 6 14 8 ESE 1026,1 10
19.10.2018 15:00:00 13,4 4,5 11 6 18 10 E 1026,5 10
19.10.2018 14:00:00 12,8 4,5 13 7 18 10 ESE 1026,9 10
19.10.2018 13:00:00 12,3 4,3 16 9 22 12 ESE 1027,0 10
19.10.2018 12:00:00 11,6 4,7 21 11 22 12 SE 1026,8 10
19.10.2018 11:00:00 11,2 5,4 18 10 22 12 SE 1027,0 10
19.10.2018 10:00:00 11,0 6,1 22 12 22 12 SSE 1026,9 10
19.10.2018 09:00:00 12,1 5,0 18 10 22 12 ESE 1026,8 10
19.10.2018 08:00:00 12,5 4,2 8 4 18 10 - 1026,8 10
19.10.2018 07:00:00 12,7 4,2 9 5 22 12 E 1026,6 10
19.10.2018 06:00:00 12,7 4,1 15 8 18 10 E 1026,4 10
19.10.2018 05:00:00 12,9 5,3 16 9 22 12 E 1026,6 10
19.10.2018 04:00:00 12,9 5,6 16 9 18 10 E 1026,8 10
19.10.2018 03:00:00 12,7 4,6 15 8 22 12 NE 1026,7 10
19.10.2018 02:00:00 12,8 4,6 15 8 22 12 NE 1026,9 10
19.10.2018 01:00:00 13,1 6,2 15 8 22 12 - 1027,1 10
19.10.2018 00:00:00 13,0 6,3 15 8 22 12 NE 1027,4 10
18.10.2018 23:00:00 13,0 5,7 18 10 22 12 NE 1027,4 10
18.10.2018 22:00:00 13,0 6,5 22 12 22 12 NE 1027,3 10
18.10.2018 21:00:00 13,2 6,1 22 12 25 14 NE 1027,0 10
18.10.2018 20:00:00 13,5 7,7 26 14 29 16 NE 1026,9 10
18.10.2018 19:00:00 13,9 8,6 16 9 22 12 NE 1026,4 10
18.10.2018 18:00:00 14,2 8,1 18 10 18 10 NE 1026,2 10
18.10.2018 17:00:00 14,4 8,2 18 10 18 10 NNE 1026,0 10
18.10.2018 16:00:00 14,4 8,1 14 8 22 12 NNE 1026,2 30
18.10.2018 15:00:00 14,5 8,6 21 11 22 12 NE 1026,2 10
18.10.2018 14:00:00 14,8 9,3 24 13 25 14 NNE 1026,0 10
18.10.2018 13:00:00 14,2 8,0 21 11 29 16 NNE 1026,2 10
18.10.2018 12:00:00 13,8 8,5 22 12 25 14 NNE 1025,9 10
18.10.2018 11:00:00 13,4 7,9 22 12 36 19 N 1025,8 10
18.10.2018 10:00:00 13,4 7,8 29 16 32 18 N 1025,2 10
18.10.2018 09:00:00 13,3 8,5 29 16 32 18 N 1024,5 10
18.10.2018 08:00:00 13,4 8,5 37 20 36 19 N 1024,1 10
18.10.2018 07:00:00 13,8 9,4 34 18 36 19 N 1023,5 10

tt = Température de l'air
td = dewpoint
ff = Vitesse du vent
fx = gusts
dd = Direction du vent
ppp = reduced air pressure
vv = visibility

stations d'obs. à proximité